TimeMST,TemperatureF,Dew PointF,Humidity,Sea Level PressureIn,VisibilityMPH,Wind Direction,Wind SpeedMPH,Gust SpeedMPH,PrecipitationIn,Events,Conditions,WindDirDegrees,DateUTC
12:53 AM,33.1,19.9,59,29.78,10.0,NW,13.8,23.0,N/A,,Scattered Clouds,320,2012-12-06 07:53:00
1:53 AM,30.9,21.0,67,29.81,10.0,NW,12.7,-,N/A,,Mostly Cloudy,310,2012-12-06 08:53:00
2:53 AM,30.0,21.0,69,29.81,10.0,NW,11.5,17.3,N/A,,Clear,310,2012-12-06 09:53:00
3:53 AM,30.0,21.9,72,29.83,10.0,NW,9.2,-,N/A,,Mostly Cloudy,310,2012-12-06 10:53:00
4:20 AM,30.2,21.2,69,30.06,10.0,North,12.7,-,N/A,,Scattered Clouds,350,2012-12-06 11:20:00
4:53 AM,30.0,21.9,72,29.82,10.0,NNW,10.4,-,N/A,,Partly Cloudy,330,2012-12-06 11:53:00
5:53 AM,28.0,21.9,78,29.85,10.0,North,9.2,-,N/A,,Scattered Clouds,350,2012-12-06 12:53:00
6:02 AM,28.4,21.2,74,30.06,10.0,North,6.9,-,N/A,,Mostly Cloudy,10,2012-12-06 13:02:00
6:38 AM,30.2,23.0,75,30.06,10.0,North,8.1,-,N/A,,Overcast,350,2012-12-06 13:38:00
6:53 AM,30.0,23.0,75,29.83,10.0,North,9.2,-,N/A,,Overcast,360,2012-12-06 13:53:00
7:53 AM,28.9,24.1,82,29.86,10.0,NNW,8.1,-,N/A,,Overcast,340,2012-12-06 14:53:00
8:53 AM,30.9,25.0,79,29.87,10.0,North,8.1,-,N/A,,Overcast,350,2012-12-06 15:53:00
9:53 AM,33.1,25.0,72,29.84,10.0,NNW,6.9,-,N/A,,Overcast,340,2012-12-06 16:53:00
10:53 AM,34.0,25.0,70,29.82,10.0,NNW,9.2,-,N/A,,Overcast,340,2012-12-06 17:53:00
11:53 AM,36.0,23.0,59,29.76,10.0,NNW,8.1,16.1,N/A,,Scattered Clouds,330,2012-12-06 18:53:00
12:53 PM,37.0,23.0,57,29.75,10.0,NW,16.1,25.3,N/A,,Partly Cloudy,320,2012-12-06 19:53:00
1:53 PM,34.0,19.0,54,29.76,10.0,NNW,12.7,20.7,N/A,,Scattered Clouds,330,2012-12-06 20:53:00
2:53 PM,35.1,19.0,52,29.76,10.0,NNW,15.0,-,N/A,,Scattered Clouds,330,2012-12-06 21:53:00
3:53 PM,33.1,19.0,56,29.77,10.0,NNW,11.5,18.4,N/A,,Clear,340,2012-12-06 22:53:00
4:53 PM,28.9,19.0,67,29.79,10.0,North,8.1,-,N/A,,Clear,360,2012-12-06 23:53:00
5:53 PM,28.0,19.0,69,29.81,10.0,NNW,6.9,-,N/A,,Clear,340,2012-12-07 00:53:00
6:53 PM,27.0,18.0,69,29.81,10.0,North,10.4,-,N/A,,Clear,350,2012-12-07 01:53:00
7:53 PM,26.1,17.1,69,29.81,10.0,NNE,6.9,-,N/A,,Clear,20,2012-12-07 02:53:00
8:53 PM,23.0,17.1,78,29.83,10.0,ENE,4.6,-,N/A,,Clear,70,2012-12-07 03:53:00
9:53 PM,21.9,15.1,75,29.81,10.0,East,4.6,-,N/A,,Clear,80,2012-12-07 04:53:00
10:53 PM,19.9,15.1,81,29.82,10.0,NNE,5.8,-,N/A,,Clear,30,2012-12-07 05:53:00
11:53 PM,23.0,16.0,74,29.77,10.0,North,8.1,-,N/A,,Clear,350,2012-12-07 06:53:00